Wind_Speed
23 26 27 28 29 31 32 32 32 32 31 30 29 28 28 28 28 27 27 26 25 24 24 24 24 24 24 23 23 21 20 19 18 16 14 13 12 10 9 9 10 12 16
23 25 28 28 30 31 33 35 36 36 36 35 34 33 32 32 31 32 31 31 30 29 28 27 27 27 27 26 26 25 24 23 22 20 18 16 15 14 12 11 11 12 13
20 22 24 27 28 30 32 34 35 36 37 37 37 37 37 36 36 35 35 35 35 34 33 31 30 29 29 29 29 28 28 27 26 24 22 21 20 19 17 16 15 14 14
16 18 19 21 23 25 27 28 30 32 33 35 36 37 37 38 38 39 38 38 38 37 37 35 34 33 32 32 33 32 31 30 29 28 27 25 24 22 21 20 19 18 17
17 18 20 21 23 25 27 28 30 31 32 34 35 37 38 38 39 40 40 41 41 41 40 39 38 37 36 36 36 36 36 34 33 32 31 29 28 27 24 23 23 22 20
18 20 22 23 25 27 29 31 32 34 35 37 38 39 40 41 42 43 43 43 43 44 43 42 41 40 39 39 39 39 39 39 37 36 34 33 32 31 29 27 26 25 24
20 22 24 26 28 29 31 33 35 36 38 39 40 42 43 44 45 46 47 47 46 46 46 46 45 44 43 42 41 41 41 42 41 40 38 37 36 35 33 31 29 28 28
23 25 28 30 32 34 36 38 40 41 42 43 44 45 46 47 47 48 49 50 51 51 49 49 48 48 47 45 44 44 43 44 43 43 41 40 39 39 38 35 33 31 31
28 31 34 36 39 42 44 45 47 48 49 50 50 51 51 51 52 52 52 52 52 53 53 54 53 52 51 49 48 47 46 46 45 45 45 44 43 42 41 39 36 35 34
35 39 42 45 47 50 52 54 56 57 58 58 59 58 58 58 57 57 56 56 56 56 55 55 56 57 55 54 52 51 50 49 47 47 47 48 47 45 44 42 39 38 36
43 46 49 52 55 58 60 62 64 65 66 67 67 67 66 65 65 63 62 61 60 59 59 58 57 58 59 58 57 56 54 52 51 50 49 50 49 48 46 45 43 41 39
49 53 57 60 62 65 67 70 71 72 73 74 74 73 72 71 70 69 68 67 66 64 62 62 61 60 60 60 60 60 59 56 55 54 53 52 51 49 48 46 45 44 42
54 58 62 65 68 71 73 76 77 78 79 79 79 79 77 75 74 73 72 71 70 70 68 66 65 64 63 62 61 61 62 62 60 59 57 56 55 52 50 48 47 46 45
58 62 66 70 73 76 78 80 81 83 84 84 84 84 84 82 79 77 75 74 73 72 72 71 69 68 67 65 64 63 62 64 64 64 62 60 59 56 54 51 49 48 47
63 67 71 74 77 79 80 82 83 85 86 87 87 88 88 88 86 82 79 77 75 74 74 74 74 72 71 69 67 66 64 64 65 66 66 64 62 60 58 56 53 51 50
69 73 77 79 81 82 84 85 87 89 90 90 91 90 89 88 87 85 82 79 77 76 76 76 76 76 75 73 72 70 68 66 65 65 67 67 66 64 62 60 57 55 54
75 78 80 82 84 86 88 89 90 90 89 87 84 81 78 75 75 74 73 72 71 72 73 76 78 79 78 77 76 74 72 71 69 66 66 67 66 66 66 63 60 58 57
78 80 83 85 87 88 89 88 86 82 78 74 69 65 63 61 60 60 59 60 62 64 67 71 76 80 81 81 80 78 77 75 73 70 68 66 65 64 66 66 64 61 59
80 82 85 87 88 87 84 80 75 71 68 65 62 59 57 56 56 55 54 54 55 57 60 64 71 77 82 84 84 83 81 79 77 75 72 69 66 64 64 67 66 64 62
82 84 87 87 86 82 78 73 70 67 66 64 63 62 61 60 59 58 56 54 54 54 56 58 63 71 80 86 87 86 84 83 81 79 76 73 69 66 64 64 67 66 64
83 85 86 86 82 78 75 72 70 68 67 66 65 64 64 63 62 61 60 57 55 55 54 55 56 61 72 83 88 89 87 86 84 82 81 77 73 70 67 64 65 66 66
85 86 85 82 79 77 75 73 69 66 63 60 59 58 58 58 59 60 60 59 58 56 55 55 54 54 60 72 84 90 90 89 88 85 83 81 78 74 70 67 65 66 67
84 83 82 80 78 75 71 66 62 59 56 54 52 51 51 51 51 52 53 55 56 57 56 55 54 53 53 58 71 85 92 92 90 88 86 84 82 79 75 71 68 67 68
83 82 80 77 73 69 65 62 60 57 55 53 52 51 50 50 49 48 47 48 51 54 55 55 55 53 52 52 58 72 86 94 94 90 88 86 84 82 79 77 73 69 69
82 80 77 72 68 64 63 61 59 58 57 56 56 54 52 50 48 47 46 45 45 48 51 54 54 54 52 51 52 59 74 89 95 94 90 87 85 82 80 79 78 74 71
81 78 72 67 65 64 62 61 60 59 59 58 55 52 49 48 46 45 44 43 42 43 46 50 52 53 52 50 50 52 61 78 92 96 93 89 87 84 81 79 78 77 74
Wind_Direction
264 264 263 264 264 262 260 259 259 260 261 261 261 262 263 264 264 264 263 261 259 258 257 255 252 249 247 244 240 237 235 236 236 236 238 241 243 241 237 237 240 238 235
273 271 270 270 272 271 270 268 267 267 267 266 265 265 264 265 265 265 265 264 262 260 258 256 253 251 248 246 242 239 236 234 234 233 235 239 243 244 242 239 238 239 237
287 284 281 280 280 280 278 276 275 274 273 272 271 270 269 267 265 264 263 264 263 261 260 257 255 252 249 247 244 241 238 236 234 233 234 236 239 242 245 244 240 236 234
306 300 297 295 293 290 287 285 283 281 279 277 275 273 271 269 267 265 263 261 260 260 259 258 255 253 250 248 245 242 240 237 236 235 235 235 238 241 244 247 246 240 233
311 308 305 302 299 296 293 291 288 285 283 281 279 277 273 270 267 265 264 262 260 258 256 256 255 253 251 249 246 243 241 238 236 236 236 236 239 241 243 246 248 246 240
313 310 306 301 298 295 292 289 287 285 284 282 280 278 276 274 271 268 265 263 262 260 257 255 253 252 251 249 247 245 243 240 237 235 235 236 239 241 242 244 247 248 247
316 312 309 305 302 300 297 294 292 289 287 285 282 280 277 274 272 271 269 266 264 261 260 258 255 253 250 249 247 245 244 242 239 236 235 235 237 241 242 242 244 246 248
317 314 312 310 308 305 303 301 298 296 293 291 288 286 283 280 277 274 271 268 266 263 260 259 258 256 252 249 247 246 244 243 241 239 236 235 236 239 241 242 243 244 246
320 317 314 312 310 307 305 303 301 299 297 294 292 289 286 284 281 279 275 272 268 265 262 259 257 256 255 251 248 246 244 242 241 240 238 237 237 238 241 242 242 244 245
319 316 314 311 309 307 305 302 300 298 296 293 291 288 286 284 281 279 277 275 272 268 264 261 257 255 254 252 249 247 244 242 240 239 238 238 239 239 240 241 242 243 245
316 314 312 310 308 306 304 302 300 298 296 294 291 289 286 284 281 278 276 273 271 269 267 263 259 256 252 250 249 247 245 243 241 239 238 238 238 239 239 240 241 242 243
314 313 311 310 308 306 304 302 300 298 296 294 292 289 286 284 281 278 275 273 270 268 266 264 261 257 254 250 248 247 245 242 240 239 237 237 237 237 237 237 238 240 241
312 311 310 308 306 305 303 301 299 298 296 294 292 290 287 284 280 277 274 271 268 266 264 262 260 257 254 252 248 246 245 243 241 239 237 236 235 235 234 234 236 237 238
312 310 309 307 305 304 302 301 299 297 295 293 291 289 287 284 281 277 272 269 266 264 261 259 257 256 254 251 249 246 244 243 241 239 237 235 234 234 233 232 234 235 236
312 310 309 308 306 304 302 300 298 296 294 292 289 287 285 283 281 278 274 269 264 261 258 256 254 252 251 249 247 245 243 242 241 239 238 235 234 234 233 232 233 234 235
313 312 311 310 308 306 303 301 299 297 295 293 291 289 286 284 282 279 276 272 267 261 256 252 250 248 248 246 245 244 242 241 241 240 238 235 233 232 233 232 232 233 235
315 314 313 311 309 307 306 304 302 300 298 296 294 292 289 286 283 280 277 273 268 263 256 251 248 245 244 243 242 241 240 239 239 239 238 236 233 231 231 232 232 232 234
317 316 314 312 311 310 307 306 304 303 302 300 296 292 288 285 281 278 274 271 267 262 257 250 246 244 241 240 239 238 238 237 237 237 237 236 234 232 229 229 230 231 233
318 317 315 314 313 311 309 309 308 306 304 300 296 291 287 284 281 278 275 273 270 265 260 253 246 242 239 238 237 236 235 235 235 235 236 235 234 233 230 228 228 230 231
320 319 318 316 314 313 313 312 310 307 303 299 295 291 288 285 282 280 277 274 271 268 263 258 250 242 238 236 235 234 233 233 233 233 234 234 234 233 231 229 227 228 229
322 321 319 317 316 316 315 312 309 306 302 299 296 293 290 287 283 280 277 273 270 267 263 260 256 248 241 236 234 232 231 231 231 232 232 232 233 233 232 230 227 226 228
323 322 320 319 319 319 317 315 313 311 309 306 303 299 296 292 288 283 278 273 268 264 262 259 257 254 247 240 235 231 229 229 229 229 230 230 231 232 231 230 228 226 226
325 323 322 323 323 322 320 319 318 317 315 312 309 306 303 299 294 288 281 274 268 263 259 256 255 254 252 247 240 233 229 227 227 227 228 229 229 230 229 228 228 227 225
326 325 326 326 326 325 324 323 323 322 320 317 315 312 309 305 301 295 288 279 270 263 258 254 252 252 252 250 247 239 232 227 226 224 225 227 228 229 229 228 226 226 225
328 328 329 329 329 328 327 327 326 325 323 321 318 315 312 309 305 299 293 285 276 265 258 252 249 249 250 250 248 245 238 230 226 224 223 224 225 226 227 228 226 226 226
330 330 331 331 331 330 329 329 328 327 325 323 321 318 316 313 309 303 296 289 281 270 259 251 247 246 248 249 249 248 243 235 228 223 221 222 223 223 224 226 226 225 225
Height
5870 5869 5868 5867 5866 5866 5866 5866 5865 5865 5864 5864 5863 5863 5863 5862 5862 5862 5861 5861 5861 5861 5861 5861 5861 5861 5861 5861 5862 5862 5863 5863 5864 5865 5866 5867 5869 5870 5872 5873 5874 5876 5877
5866 5865 5865 5864 5863 5862 5862 5861 5861 5860 5859 5859 5858 5857 5857 5856 5856 5856 5856 5856 5856 5856 5856 5856 5856 5856 5857 5857 5858 5858 5859 5860 5861 5861 5863 5864 5865 5867 5869 5871 5872 5874 5875
5863 5862 5861 5860 5859 5859 5858 5857 5856 5854 5854 5853 5852 5851 5850 5850 5849 5849 5849 5849 5849 5850 5850 5850 5850 5851 5852 5852 5853 5854 5855 5856 5857 5858 5859 5860 5862 5863 5865 5868 5870 5871 5872
5860 5859 5858 5857 5856 5855 5853 5852 5850 5849 5847 5846 5845 5844 5843 5843 5842 5842 5842 5842 5842 5842 5843 5844 5844 5845 5846 5846 5847 5848 5849 5851 5852 5853 5855 5856 5857 5859 5861 5863 5866 5868 5869
5858 5857 5856 5854 5852 5850 5848 5846 5844 5842 5841 5839 5837 5836 5835 5835 5834 5834 5834 5834 5834 5834 5835 5835 5836 5837 5838 5839 5840 5842 5843 5845 5846 5848 5850 5852 5853 5854 5856 5859 5861 5863 5865
5856 5854 5852 5850 5848 5845 5843 5841 5838 5836 5834 5831 5829 5828 5827 5826 5825 5825 5825 5825 5825 5825 5826 5826 5827 5828 5829 5831 5832 5834 5836 5838 5839 5841 5844 5846 5847 5848 5851 5853 5856 5858 5861
5852 5850 5848 5846 5843 5841 5838 5835 5833 5830 5827 5824 5822 5820 5818 5816 5815 5815 5815 5815 5815 5815 5816 5817 5817 5818 5820 5821 5823 5825 5827 5829 5831 5834 5837 5839 5841 5842 5844 5847 5850 5853 5856
5850 5848 5845 5842 5839 5836 5833 5830 5826 5823 5820 5817 5815 5812 5809 5807 5805 5804 5803 5803 5803 5804 5805 5805 5807 5808 5809 5811 5813 5815 5817 5819 5822 5826 5828 5831 5834 5835 5838 5841 5844 5847 5850
5848 5845 5842 5838 5834 5830 5826 5823 5819 5815 5812 5808 5805 5802 5799 5797 5795 5794 5792 5791 5791 5791 5792 5793 5795 5796 5798 5800 5802 5804 5806 5808 5812 5816 5819 5822 5826 5828 5830 5834 5837 5840 5844
5843 5839 5835 5831 5827 5822 5818 5813 5808 5804 5800 5796 5793 5790 5787 5785 5783 5781 5780 5779 5778 5778 5778 5780 5782 5783 5785 5788 5790 5792 5795 5797 5801 5804 5808 5812 5816 5819 5822 5826 5829 5833 5836
5837 5832 5827 5822 5817 5811 5806 5800 5795 5790 5785 5781 5777 5774 5771 5769 5767 5766 5765 5764 5764 5764 5764 5766 5767 5769 5771 5774 5777 5780 5783 5786 5789 5793 5798 5802 5806 5809 5813 5817 5820 5824 5828
5829 5823 5817 5811 5805 5799 5792 5786 5779 5773 5768 5763 5758 5755 5753 5750 5748 5747 5746 5746 5747 5747 5749 5750 5752 5753 5756 5759 5762 5766 5770 5774 5777 5782 5786 5791 5795 5799 5802 5807 5811 5815 5819
5821 5814 5807 5800 5793 5785 5777 5770 5762 5755 5749 5742 5737 5733 5730 5728 5726 5725 5725 5725 5726 5728 5731 5733 5735 5736 5739 5743 5747 5750 5755 5760 5764 5769 5774 5779 5783 5787 5792 5796 5800 5805 5810
5811 5803 5795 5787 5778 5770 5760 5751 5743 5735 5728 5721 5714 5709 5705 5703 5701 5700 5700 5701 5702 5705 5709 5712 5715 5718 5722 5726 5730 5734 5739 5744 5750 5755 5760 5766 5771 5775 5780 5786 5790 5795 5800
5799 5790 5781 5771 5761 5752 5742 5732 5722 5713 5704 5696 5690 5684 5680 5676 5673 5672 5672 5674 5676 5680 5684 5688 5692 5697 5702 5707 5711 5717 5723 5728 5733 5739 5745 5751 5758 5763 5768 5774 5780 5785 5790
5785 5775 5764 5753 5742 5730 5720 5709 5698 5688 5678 5669 5662 5656 5651 5648 5645 5644 5643 5644 5648 5653 5657 5662 5667 5673 5679 5686 5692 5698 5705 5711 5717 5722 5728 5735 5742 5749 5755 5762 5768 5774 5779
5770 5759 5747 5735 5723 5710 5697 5684 5672 5661 5651 5643 5635 5629 5624 5621 5619 5618 5617 5617 5619 5623 5629 5634 5640 5648 5655 5663 5670 5678 5685 5693 5700 5706 5712 5719 5727 5735 5741 5748 5756 5762 5768
5755 5743 5730 5716 5703 5689 5675 5661 5649 5638 5628 5620 5613 5607 5603 5599 5597 5595 5594 5593 5594 5597 5600 5606 5613 5621 5630 5638 5647 5655 5664 5673 5682 5689 5696 5704 5711 5719 5727 5734 5742 5750 5756
5740 5726 5712 5698 5683 5668 5654 5641 5629 5618 5609 5601 5595 5589 5585 5581 5578 5576 5575 5574 5573 5574 5576 5580 5586 5594 5603 5612 5622 5632 5642 5652 5662 5671 5680 5688 5695 5703 5711 5719 5728 5736 5744
5724 5709 5694 5678 5662 5648 5634 5623 5612 5602 5592 5584 5577 5571 5566 5562 5559 5557 5556 5555 5555 5554 5555 5557 5561 5568 5576 5585 5595 5607 5619 5630 5640 5651 5662 5671 5679 5687 5696 5704 5713 5722 5731
5708 5692 5676 5660 5644 5630 5618 5606 5596 5586 5576 5567 5559 5551 5546 5541 5538 5536 5535 5535 5535 5535 5536 5537 5540 5544 5550 5558 5569 5582 5596 5608 5619 5629 5641 5652 5662 5671 5680 5689 5698 5707 5717
5693 5675 5658 5641 5627 5613 5600 5587 5576 5566 5556 5548 5539 5532 5525 5520 5516 5513 5513 5513 5514 5516 5517 5519 5521 5525 5529 5534 5543 5556 5571 5586 5593 5608 5620 5631 5643 5653 5663 5673 5683 5692 5702
5677 5659 5641 5626 5611 5597 5584 5572 5561 5552 5542 5534 5526 5518 5510 5503 5498 5493 5491 5491 5492 5494 5497 5500 5503 5507 5511 5515 5520 5530 5544 5557 5571 5587 5599 5611 5622 5633 5645 5656 5666 5676 5686
5661 5643 5627 5612 5597 5584 5571 5559 5548 5538 5528 5519 5511 5503 5495 5488 5482 5477 5473 5471 5471 5473 5476 5480 5484 5488 5493 5497 5501 5506 5517 5530 5546 5563 5577 5589 5601 5614 5627 5638 5650 5660 5670
5647 5630 5614 5600 5585 5572 5559 5548 5536 5526 5516 5506 5497 5489 5481 5474 5467 5461 5457 5454 5452 5453 5456 5460 5465 5470 5475 5479 5484 5488 5494 5505 5520 5539 5555 5567 5580 5595 5607 5619 5632 5644 5655
5635 5619 5604 5590 5576 5563 5550 5538 5526 5515 5505 5494 5485 5476 5468 5461 5453 5447 5442 5438 5436 5435 5437 5441 5446 5452 5457 5462 5466 5470 5474 5483 5497 5513 5531 5545 5558 5575 5588 5601 5615 5628 5640